SCP
0 0 0 0 0 0 0 0 0 0 0 0 0 0 0 0 0 0 0 0 0 0
0 0 0 0 0 0 0 0 0 0 0 0 0 0 0 0 0 0 0 0 0 0
0 0 0 0 0 0 0 0 0 0 0 0 0 0 0 0 0 0 0 0 0 0
0 0 0 0 0 0 0 0 0 0 0 0 0 0 0 0 0 0 0 0 0 0
0 0 0 0 0 0 0 0 0 0 0 0 0 0 0 0 0 0 0 0 0 0
0 0 0 0 0 0 0 0 0 0 0 0 0 0 0 0 0 0 0 0 0 0
0 0 0 0 0 0 0 0 0 0 0 0 0 0 0 0 0 0 0 0 0 0
0 0 0 0 0 0 0 0 0 0 0 0 0 0 0 0 0 0 0 0 0 0
0 0 0 0 0 0 0 0 0 0 0 0 0 0 0 0 0 0 0 0 0 0
0 0 0 0 0 0 0 0 0 0 0 0 0 0 0 0 0 0 0 0 0 0
0 0 0 0 0 0 0 0 0 0 0 0 0 0 0 0 0 0 0 0 0 0
0 0 0 0 0 0 0 0 0 0 0 0 0 0 0 0 0 0 0 0 0 0
0 0 0 0 0 0 0 0 0 0 0 0 0 0 0 0 0 0 0 0 0 0
0 0 0 0 0 0 0 0 0 0 0 0 0 0 0 0 0 0 0 0 0 0
Wind_Speed_500mb
64 69 73 74 77 80 78 73 66 64 70 86 93 92 94 83 98 89 88 97 113 105
52 58 62 65 68 73 72 68 64 61 60 65 83 89 86 92 90 92 85 90 102 102
36 44 47 53 59 62 63 64 62 61 61 63 72 86 87 88 86 87 96 89 90 103
25 32 38 43 48 54 56 59 59 57 58 59 63 66 79 84 84 91 84 89 89 88
31 35 37 40 42 47 54 55 54 55 55 55 56 60 66 70 79 83 83 85 92 89
44 44 41 43 47 49 52 54 53 55 55 54 55 59 58 64 68 71 82 81 75 80
59 55 49 47 51 53 52 52 54 53 53 53 52 54 58 62 66 70 70 72 77 80
56 60 56 56 59 59 57 54 53 54 54 54 56 56 58 62 65 67 68 71 70 72
59 58 58 59 58 60 60 56 56 56 55 55 54 53 57 61 63 64 65 65 64 63
51 56 59 59 59 59 57 55 53 52 54 54 49 53 57 57 58 56 56 57 56 56
59 60 59 59 57 55 55 54 51 50 49 50 45 53 55 51 46 44 46 51 52 53
57 54 51 51 51 50 50 49 49 46 45 47 45 49 51 52 47 46 44 43 44 55
47 47 45 44 46 46 45 44 44 42 42 43 43 44 41 40 37 41 45 51 54 40
38 38 38 40 41 40 41 41 39 39 39 40 39 36 32 32 33 37 37 46 51 57
Wind_Direction_500mb
252 253 255 256 259 261 260 260 259 257 254 240 243 243 245 255 249 261 246 263 250 246
253 255 257 258 260 262 265 264 261 257 254 248 243 244 248 253 246 249 257 255 252 250
255 256 258 260 261 264 266 263 261 259 257 253 246 242 246 246 249 254 256 252 256 253
264 260 258 259 261 262 265 267 266 263 258 254 251 243 241 246 248 248 255 257 256 257
267 265 266 268 265 262 263 266 269 264 259 255 250 245 246 250 249 250 251 257 255 254
268 265 270 273 271 268 267 266 267 262 258 255 253 251 249 250 251 253 256 255 255 255
270 269 268 271 272 272 272 268 266 261 256 254 252 250 250 251 252 255 254 255 258 254
276 268 267 270 273 275 274 270 265 258 253 252 252 251 249 250 252 255 256 254 254 250
273 263 266 272 272 271 271 268 261 257 254 254 254 255 253 252 254 255 254 254 249 244
270 268 272 273 272 270 268 265 261 258 254 254 257 255 254 254 256 256 254 249 243 240
271 273 273 272 270 266 264 262 261 258 255 255 257 256 253 254 257 258 257 253 250 241
274 271 269 268 267 264 260 259 260 258 252 253 255 255 254 252 251 251 249 241 233 231
268 267 266 262 259 257 255 254 254 251 247 250 254 255 256 254 250 247 241 234 235 225
264 263 260 258 258 257 253 250 247 243 241 244 246 247 244 246 245 242 240 234 224 210
Wind_Speed_850mb
64 69 73 74 77 80 78 73 66 64 70 86 93 92 94 83 98 89 88 97 113 105
52 58 62 65 68 73 72 68 64 61 60 65 83 89 86 92 90 92 85 90 102 102
36 44 47 53 59 62 63 64 62 61 61 63 72 86 87 88 86 87 96 89 90 103
25 32 38 43 48 54 56 59 59 57 58 59 63 66 79 84 84 91 84 89 89 88
31 35 37 40 42 47 54 55 54 55 55 55 56 60 66 70 79 83 83 85 92 89
44 44 41 43 47 49 52 54 53 55 55 54 55 59 58 64 68 71 82 81 75 80
59 55 49 47 51 53 52 52 54 53 53 53 52 54 58 62 66 70 70 72 77 80
56 60 56 56 59 59 57 54 53 54 54 54 56 56 58 62 65 67 68 71 70 72
59 58 58 59 58 60 60 56 56 56 55 55 54 53 57 61 63 64 65 65 64 63
51 56 59 59 59 59 57 55 53 52 54 54 49 53 57 57 58 56 56 57 56 56
59 60 59 59 57 55 55 54 51 50 49 50 45 53 55 51 46 44 46 51 52 53
57 54 51 51 51 50 50 49 49 46 45 47 45 49 51 52 47 46 44 43 44 55
47 47 45 44 46 46 45 44 44 42 42 43 43 44 41 40 37 41 45 51 54 40
38 38 38 40 41 40 41 41 39 39 39 40 39 36 32 32 33 37 37 46 51 57
Wind_Direction_850mb
252 253 255 256 259 261 260 260 259 257 254 240 243 243 245 255 249 261 246 263 250 246
253 255 257 258 260 262 265 264 261 257 254 248 243 244 248 253 246 249 257 255 252 250
255 256 258 260 261 264 266 263 261 259 257 253 246 242 246 246 249 254 256 252 256 253
264 260 258 259 261 262 265 267 266 263 258 254 251 243 241 246 248 248 255 257 256 257
267 265 266 268 265 262 263 266 269 264 259 255 250 245 246 250 249 250 251 257 255 254
268 265 270 273 271 268 267 266 267 262 258 255 253 251 249 250 251 253 256 255 255 255
270 269 268 271 272 272 272 268 266 261 256 254 252 250 250 251 252 255 254 255 258 254
276 268 267 270 273 275 274 270 265 258 253 252 252 251 249 250 252 255 256 254 254 250
273 263 266 272 272 271 271 268 261 257 254 254 254 255 253 252 254 255 254 254 249 244
270 268 272 273 272 270 268 265 261 258 254 254 257 255 254 254 256 256 254 249 243 240
271 273 273 272 270 266 264 262 261 258 255 255 257 256 253 254 257 258 257 253 250 241
274 271 269 268 267 264 260 259 260 258 252 253 255 255 254 252 251 251 249 241 233 231
268 267 266 262 259 257 255 254 254 251 247 250 254 255 256 254 250 247 241 234 235 225
264 263 260 258 258 257 253 250 247 243 241 244 246 247 244 246 245 242 240 234 224 210